BEIDOU-3 M12 (C26)

Last updated on Wed Nov 20 2024 00:03:14 GMT+0000 (Coordinated Universal Time)

1 43602U 18067A 24323.28934200 .00000034 00000+0 00000+0 0 9994 2 43602 54.2056 200.5745 0008450 32.7195 327.4282 1.86227675 42396
UTC large
Height (km)
Speed (km/s)
/
Latitude / Longitude
Inclination (degrees)
Orbital Period (minutes)
Azimuth
Elevation
Range (km)
Doppler Factor

Next 0 passes for location: London (51.5072 / 0.1276)

Sorry there are no passes over London.